IV3CVE-H1 Weather Reports


time (UTC)temp
C
wind
direction
speed
KPH
gust
KPH
rain 1hr
cm
rain 24hr
cm
rain mn
cm
humidity
%
barometer
mb
20260504214517 13 77 3.2 8.0 0.00 0.00 0.00 84 1014.4
20260504213517 13 71 3.2 8.0 0.00 0.00 0.00 85 1014.4
20260504212516 13 56 4.8 6.4 0.00 0.00 0.00 85 1014.5
20260504211516 13 55 4.8 6.4 0.00 0.00 0.00 85 1014.6
20260504210536 13 55 1.6 4.8 0.00 0.00 0.00 84 1014.6
20260504205536 13 55 1.6 3.2 0.00 0.00 0.00 83 1014.6
20260504204516 14 55 1.6 3.2 0.00 0.00 0.00 82 1014.6
20260504203515 14 55 3.2 4.8 0.00 0.00 0.00 81 1014.6
20260504202515 15 55 3.2 4.8 0.00 0.00 0.00 80 1014.6
20260504201515 15 53 1.6 1.6 0.00 0.00 0.00 79 1014.5
20260504200517 15 53 1.6 3.2 0.00 0.00 0.00 79 1014.5
20260504195517 15 53 1.6 3.2 0.00 0.00 0.00 78 1014.4
20260504194517 15 54 1.6 3.2 0.00 0.00 0.00 76 1014.3
20260504193516 16 53 1.6 3.2 0.00 0.00 0.00 75 1014.3
20260504192515 16 54 1.6 4.8 0.00 0.00 0.00 75 1014.2
20260504191517 16 53 1.6 4.8 0.00 0.00 0.00 73 1014.1
20260504190537 16 144 3.2 4.8 0.00 0.00 0.00 72 1014.0
20260504185516 17 147 1.6 4.8 0.00 0.00 0.00 71 1013.8
20260504184516 17 174 3.2 3.2 0.00 0.00 0.00 69 1013.7
20260504183516 18 174 1.6 3.2 0.00 0.00 0.00 66 1013.7
20260504182536 18 174 1.6 3.2 0.00 0.00 0.00 64 1013.7
20260504181516 19 175 0.0 1.6 0.00 0.00 0.00 62 1013.7
20260504180515 20 175 0.0 4.8 0.00 0.00 0.00 60 1013.6
20260504175515 20 174 4.8 9.7 0.00 0.00 0.00 58 1013.5
20260504174515 20 161 4.8 11.3 0.00 0.00 0.00 57 1013.4
20260504173537 21 150 4.8 12.9 0.00 0.00 0.00 57 1013.3
20260504172517 21 154 3.2 11.3 0.00 0.00 0.00 58 1013.3
20260504171557 21 159 6.4 14.5 0.00 0.00 0.00 62 1013.3
20260504170516 21 150 6.4 11.3 0.00 0.00 0.00 62 1013.3
20260504150537 23 143 4.8 12.9 0.00 0.00 0.00 56 1013.6
20260504140516 23 133 3.2 14.5 0.00 0.00 0.00 52 1013.9
20260504130516 25 126 8.0 17.7 0.00 0.00 0.00 49 1014.3
20260504110515 25 77 8.0 14.5 0.00 0.00 0.00 41 1015.0
20260504100516 24 114 3.2 9.7 0.00 0.00 0.00 40 1015.6
20260504081516 21 70 1.6 8.0 0.00 0.00 0.00 48 1015.8
20260504080536 21 83 1.6 6.4 0.00 0.00 0.00 50 1015.7
20260504050516 11 26 3.2 8.0 0.00 0.00 0.00 87 1014.9
20260504045515 10 25 3.2 6.4 0.00 0.00 0.00 87 1014.8
20260504044515 10 25 3.2 8.0 0.00 0.00 0.00 88 1014.8
20260504043517 10 25 4.8 8.0 0.00 0.00 0.00 88 1014.7
20260504042517 10 23 6.4 9.7 0.00 0.00 0.00 88 1014.7
20260504041537 10 30 3.2 9.7 0.00 0.00 0.00 88 1014.6
20260504040517 10 24 6.4 9.7 0.00 0.00 0.00 88 1014.6
20260504035516 10 25 6.4 8.0 0.00 0.00 0.00 87 1014.7
20260504034536 10 21 6.4 8.0 0.00 0.00 0.00 88 1014.7
20260504033516 10 21 4.8 8.0 0.00 0.00 0.00 88 1014.7
20260504032516 10 22 3.2 8.0 0.00 0.00 0.00 88 1014.7
20260504031536 10 22 3.2 9.7 0.00 0.00 0.00 88 1014.7
20260504030516 10 36 4.8 8.0 0.00 0.00 0.00 88 1014.7
20260504025557 10 32 3.2 8.0 0.00 0.00 0.00 88 1014.8
20260504024516 10 30 3.2 8.0 0.00 0.00 0.00 88 1014.8
20260504023516 10 28 6.4 8.0 0.00 0.00 0.00 87 1014.9
20260504022516 10 29 3.2 8.0 0.00 0.00 0.00 87 1014.9
20260504021516 10 30 3.2 6.4 0.00 0.00 0.00 86 1014.9
20260504020515 10 30 1.6 4.8 0.00 0.00 0.00 86 1014.9
20260504015515 10 30 3.2 4.8 0.00 0.00 0.00 86 1014.9
20260504014517 10 30 3.2 4.8 0.00 0.00 0.00 85 1015.0
20260504013517 11 30 1.6 4.8 0.00 0.00 0.00 84 1015.0
20260504012517 11 30 3.2 4.8 0.00 0.00 0.00 84 1015.0
20260504011536 11 30 1.6 4.8 0.00 0.00 0.00 84 1015.0
20260504010516 11 30 1.6 3.2 0.00 0.00 0.00 83 1015.0
20260504005516 11 30 1.6 3.2 0.00 0.00 0.00 84 1015.0
20260504004516 11 30 1.6 3.2 0.00 0.00 0.00 83 1015.0
20260504003515 11 30 1.6 3.2 0.00 0.00 0.00 83 1015.1
20260504002515 11 30 1.6 4.8 0.00 0.00 0.00 82 1015.1
20260504001515 11 32 1.6 6.4 0.00 0.00 0.00 82 1015.1
20260504000517 12 29 1.6 6.4 0.00 0.00 0.00 81 1015.0
20260503235517 12 25 4.8 8.0 0.00 0.00 0.00 81 1015.1
20260503234517 12 32 3.2 8.0 0.00 0.00 0.00 80 1015.1
20260503233516 12 41 1.6 6.4 0.00 0.00 0.00 81 1015.1
20260503232517 12 42 3.2 6.4 0.00 0.00 0.00 81 1015.1
20260503231516 11 68 1.6 4.8 0.00 0.00 0.00 81 1015.2
20260503230516 12 68 1.6 3.2 0.00 0.00 0.00 80 1015.2
20260503225517 12 69 1.6 6.4 0.00 0.00 0.00 81 1015.2
20260503224517 11 91 1.6 4.8 0.00 0.00 0.00 81 1015.2
20260503223516 11 116 3.2 4.8 0.00 0.00 0.00 82 1015.3
20260503222556 11 147 1.6 3.2 0.00 0.00 0.00 82 1015.3
20260503221516 11 146 1.6 3.2 0.00 0.00 0.00 81 1015.1
20260503220515 12 148 1.6 1.6 0.00 0.00 0.00 80 1015.0
20260503215515 12 148 0.0 1.6 0.00 0.00 0.00 79 1015.0